Regional Weather Roundup
Issued by NWS

Home | Current Version | Previous Version | Text Only | Print | Product List | Glossary Off
Versions: 1 2 3 4 5 6 7 8 9 10 11 12 13 14 15 16 17 18 19 20 21 22 23 24 25 26 27 28 29 30 31 32 33 34 35 36 37 38 39 40 41 42 43 44 45 46 47 48 49 50

000
ASUS45 KABQ 230310
RWRNM
NEW MEXICO REGIONAL WEATHER ROUNDUP
NATIONAL WEATHER SERVICE ALBUQUERQUE NM
900 PM MDT FRI SEP 22 2017

NOTE: "FAIR" MEANS FEW OR NO CLOUDS BELOW 12,000 FEET AGL WITH NO
       SIGNIFICANT WEATHER OR OBSTRUCTIONS TO VISION.

      THIS PRODUCT IS RELEASED AS TWO VERSIONS.  ONE VERSION NEAR
      THE TOP OF THE HOUR CONTAINING PRELIMINARY DATA FROM ALBUQUERQUE
      AND OTHER STATIONS.  A FINAL VERSION WITH ADDITIONAL DATA IS
      ISSUED ABOUT 10 MINUTES AFTER THE HOUR.

NMZ501-503-504-510>518-230400-
NORTHWEST PLATEAU/NORTHCENTRAL MOUNTAINS

CITY           SKY/WX    TMP DP  RH WIND       PRES   REMARKS
FARMINGTON     FAIR      64  25  22 W8        29.84R
LOS ALAMOS     MOCLDY    70  32  24 S13       30.01R
SANTA FE       CLOUDY    73  35  25 SE10      29.95R
TAOS           FAIR      67  37  33 S14       30.04R
ANGEL FIRE     DRIZZLE   62  35  36 SW16G25   30.13R

$$
NMZ402-403-502-505>509-230400-
WESTCENTRAL MOUNTAINS/SOUTHWEST MOUNTAINS

CITY           SKY/WX    TMP DP  RH WIND       PRES   REMARKS
GALLUP         FAIR      63  28  26 SW8       29.93R
GRANTS         MOCLDY    56  40  56 SE5       29.97R
SILVER CITY    MOCLDY    71  37  29 W7        29.93R

$$
NMZ407-409-411-412-230400-
SOUTHERN DESERTS

CITY           SKY/WX    TMP DP  RH WIND       PRES   REMARKS
DEMING         FAIR      77  41  27 W9        29.83R
LAS CRUCES     FAIR      75  34  22 W7        29.85R
HOLLOMAN AFB   FAIR      77  39  25 SE9       29.83S
ALAMOGORDO     FAIR      75  37  25 S8        29.84R
T OR C         FAIR      80  36  20 SW9       29.85R

$$
NMZ519>523-230400-
CENTRAL VALLEYS/CENTRAL HIGHLANDS

CITY           SKY/WX    TMP DP  RH WIND       PRES   REMARKS
ALBUQUERQUE    MOCLDY    76  35  22 S10       29.88R
DOUBLE EAGLE   MOCLDY    63  30  29 SW8       29.91R
MORIARTY ARPT  MOCLDY    70  39  32 SE12      29.98R
CLINES CORNERS MOCLDY    68  36  30 S17       30.04R
BELEN          FAIR      73  30  21 S5        29.87R
SOCORRO        FAIR      79  32  17 S13       29.85R

$$
NMZ524>526-539-540-230400-
SOUTHCENTRAL MOUNTAINS

CITY           SKY/WX    TMP DP  RH WIND       PRES   REMARKS
RUIDOSO        FAIR      66  36  32 SE7       30.07S

$$
NMZ527>531-230400-
NORTHEAST HIGHLANDS/NORTHEAST PLAINS

CITY           SKY/WX    TMP DP  RH WIND       PRES   REMARKS
LAS VEGAS      FAIR      66  38  35 S15       30.01R
RATON          FAIR      65  39  38 S7        29.95R
CLAYTON        FAIR      70  61  73 S18       29.92R

$$
NMZ532>537-230400-
EASTCENTRAL PLAINS

CITY           SKY/WX    TMP DP  RH WIND       PRES   REMARKS
SANTA ROSA     MOCLDY    80  36  20 S14       29.87R
TUCUMCARI      FAIR      77  63  61 SE24G33   29.84R
CANNON AFB     FAIR      75  65  72 SE17G24   29.93R
CLOVIS AIRPORT FAIR      74  63  68 SE15G23   29.94R

$$
NMZ028-029-538-230400-
SOUTHEAST PLAINS

CITY           SKY/WX    TMP DP  RH WIND       PRES   REMARKS
ROSWELL        FAIR      78  55  44 SE10      29.84R
ARTESIA        FAIR      81  63  54 S18       29.84R
CARLSBAD       FAIR      78  69  73 S8        29.84R
HOBBS          FAIR      79  63  57 S17G24    29.90R


$$



USA.gov is the U.S. government's official web portal to all federal, state and local government web resources and services.